Date String (YYYY-MM-DD hh:mm:ss) UTC,Instrument flags,absolute air pressure of the measurement (hPa),sample flow rate (lpm),inlet stack bypass flow (lpm),air temperature of the measurement (°C),ambient temperature measured by the external sensor (°C),aerosol sample conditioner tube jacket temperature (°C),OPC LED temperature (°C),internal box temperature (°C),relative humidity of the measurement (%),span deviation,mass concentration of particles derived from Lorenz-Mie calculation of OPC scattering (μg/m³),mass concentration of particles derived from Lorenz-Mie calculation of OPC scattering (μg/m³),mass concentration of particles derived from Lorenz-Mie calculation of OPC scattering (μg/m³)
DateTimeUTC,F1_M11,P_M11,Q1_M11,Q2_M11,T1_M11,T2_M11,T3_M11,T4_M11,T5_M11,U1_M11,ZSPAN_M11,X0_M11,X2_M11,X1_M11
2023-09-11 08:00:00,SystemResetWarning,0837.6,4.99,000.00,028.8,027.7,000.0,037.1,030.5,31.8,-000.6,0008.17,0005.06,0004.75
2023-09-11 08:01:00,SystemResetWarning,0837.6,4.99,000.00,028.8,027.7,000.0,037.1,030.5,31.8,-000.4,0008.15,0005.06,0004.75
2023-09-11 08:02:00,SystemResetWarning,0837.5,5.01,000.00,028.9,027.7,000.0,037.1,030.5,31.8,-000.3,0008.07,0005.04,0004.75
2023-09-11 08:03:00,SystemResetWarning,0837.5,5.01,000.00,028.9,027.8,000.0,037.1,030.6,31.8,-000.3,0008.06,0005.06,0004.77
2023-09-11 08:04:00,SystemResetWarning,0837.5,5.00,000.00,028.9,027.8,000.0,037.2,030.6,31.8,-000.4,0008.11,0005.09,0004.79
2023-09-11 08:05:00,SystemResetWarning,0837.5,5.00,000.00,028.9,027.8,000.0,037.2,030.6,31.7,-000.3,0008.11,0005.10,0004.81
2023-09-11 08:06:00,SystemResetWarning,0837.4,4.99,000.00,029.0,027.8,000.0,037.2,030.6,31.8,-000.3,0008.10,0005.09,0004.80
2023-09-11 08:07:00,SystemResetWarning,0837.4,5.00,000.00,029.0,027.8,000.0,037.2,030.7,31.7,-000.2,0008.12,0005.10,0004.80
2023-09-11 08:08:00,SystemResetWarning,0837.4,5.00,000.00,029.0,027.9,000.0,037.2,030.7,31.7,-000.2,0008.18,0005.11,0004.80
2023-09-11 08:09:00,SystemResetWarning,0837.4,5.00,000.00,029.0,027.9,000.0,037.3,030.7,31.5,-000.1,0008.21,0005.12,0004.79
2023-09-11 08:10:00,SystemResetWarning,0837.4,5.01,000.00,029.0,027.9,000.0,037.3,030.7,31.5,-000.5,0008.13,0005.10,0004.78
2023-09-11 08:11:00,SystemResetWarning,0837.4,4.99,000.00,029.1,027.1,000.0,037.2,030.6,31.7,-000.9,0008.07,0005.08,0004.78
2023-09-11 08:12:00,SystemResetWarning,0837.5,5.01,000.00,029.0,025.4,000.0,037.2,030.2,31.9,-001.0,0008.12,0005.09,0004.78
2023-09-11 08:13:00,SystemResetWarning,0837.2,5.01,000.00,028.9,024.7,000.0,037.1,030.0,31.9,-000.9,0008.11,0005.08,0004.76
2023-09-11 08:14:00,SystemResetWarning,0837.2,5.00,000.00,028.7,024.7,000.0,037.1,029.9,32.2,-000.8,0008.09,0005.05,0004.73
2023-09-11 08:15:00,SystemResetWarning,0837.2,4.99,000.00,028.6,025.1,000.0,037.1,029.8,32.5,-000.7,0008.05,0005.04,0004.71
2023-09-11 08:16:00,SystemResetWarning,0837.2,5.00,000.00,028.6,025.4,000.0,037.1,029.8,32.7,-000.7,0008.06,0005.04,0004.69
2023-09-11 08:17:00,SystemResetWarning,0837.2,5.00,000.00,028.5,025.8,000.0,037.0,029.8,33.1,-000.5,0008.06,0005.03,0004.69
2023-09-11 08:18:00,SystemResetWarning,0837.2,4.99,000.00,028.5,026.1,000.0,037.0,029.9,33.4,-000.5,0008.03,0005.01,0004.67
2023-09-11 08:19:00,SystemResetWarning,0837.2,4.99,000.00,028.5,026.4,000.0,037.0,029.9,33.4,-000.8,0007.97,0004.97,0004.65
2023-09-11 08:20:00,SystemResetWarning,0837.2,5.00,000.00,028.5,026.6,000.0,037.0,029.9,33.5,-000.6,0007.82,0004.91,0004.63
2023-09-11 08:21:00,SystemResetWarning,0837.2,5.00,000.00,028.5,026.8,000.0,037.0,030.0,33.5,-000.3,0007.77,0004.90,0004.62
2023-09-11 08:22:00,SystemResetWarning,0837.2,5.00,000.00,028.5,026.9,000.0,037.0,030.1,33.4,0000.2,0007.78,0004.90,0004.60
2023-09-11 08:23:00,SystemResetWarning,0837.2,5.01,000.00,028.5,027.0,000.0,037.0,030.2,33.4,0000.3,0007.73,0004.87,0004.58
2023-09-11 08:24:00,SystemResetWarning,0837.2,5.00,000.00,028.6,027.1,000.0,036.9,030.2,33.4,0000.3,0007.66,0004.83,0004.55
2023-09-11 08:25:00,SystemResetWarning,0837.2,5.00,000.00,028.6,027.2,000.0,036.9,030.3,33.2,0000.4,0007.61,0004.81,0004.53
2023-09-11 08:26:00,SystemResetWarning,0837.2,5.01,000.00,028.6,027.3,000.0,037.0,030.3,33.2,0000.1,0007.53,0004.76,0004.51
2023-09-11 08:27:00,SystemResetWarning,0837.2,5.00,000.00,028.6,027.4,000.0,037.0,030.3,33.1,0000.0,0007.54,0004.75,0004.51
2023-09-11 08:28:00,SystemResetWarning,0837.2,4.99,000.00,028.7,027.4,000.0,037.0,030.3,33.0,-000.1,0007.57,0004.73,0004.48
2023-09-11 08:29:00,SystemResetWarning,0837.2,5.00,000.00,028.7,027.4,000.0,037.0,030.3,33.1,-000.4,0007.72,0004.74,0004.47
2023-09-11 08:30:00,SystemResetWarning,0837.2,5.00,000.00,028.7,027.5,000.0,037.0,030.3,33.0,0000.0,0007.66,0004.72,0004.46
2023-09-11 08:31:00,SystemResetWarning,0837.2,5.00,000.00,028.7,027.5,000.0,037.0,030.4,32.9,-000.0,0007.65,0004.71,0004.46
2023-09-11 08:32:00,SystemResetWarning,0837.2,5.00,000.00,028.8,027.5,000.0,037.0,030.4,32.8,-000.7,0007.69,0004.71,0004.44
2023-09-11 08:33:00,SystemResetWarning,0837.2,5.00,000.00,028.8,027.5,000.0,037.0,030.4,32.8,-001.1,0007.65,0004.69,0004.44
2023-09-11 08:34:00,SystemResetWarning,0837.2,5.00,000.00,028.8,027.6,000.0,037.0,030.4,32.7,-001.3,0007.61,0004.68,0004.44
2023-09-11 08:35:00,SystemResetWarning,0837.2,5.00,000.00,028.8,027.6,000.0,037.1,030.5,32.7,-001.2,0007.63,0004.71,0004.47
2023-09-11 08:36:00,SystemResetWarning,0837.2,4.99,000.00,028.8,027.6,000.0,037.1,030.5,32.7,-001.3,0007.64,0004.72,0004.49
2023-09-11 08:37:00,SystemResetWarning,0837.2,5.01,000.00,028.9,027.6,000.0,037.1,030.5,32.7,-001.5,0007.66,0004.75,0004.51
2023-09-11 08:38:00,SystemResetWarning,0837.2,5.01,000.00,028.9,027.6,000.0,037.1,030.6,32.7,-001.6,0007.63,0004.76,0004.52
2023-09-11 08:39:00,SystemResetWarning,0837.1,5.00,000.00,028.9,027.6,000.0,037.1,030.6,32.7,-001.6,0007.61,0004.77,0004.53
2023-09-11 08:40:00,SystemResetWarning,0837.1,5.00,000.00,028.9,027.6,000.0,037.1,030.6,32.7,-001.3,0007.50,0004.77,0004.54
2023-09-11 08:41:00,SystemResetWarning,0837.1,5.00,000.00,028.9,027.6,000.0,037.1,030.6,32.6,-001.5,0007.73,0004.79,0004.55
2023-09-11 08:42:00,SystemResetWarning,0837.1,4.99,000.00,028.9,027.6,000.0,037.2,030.6,32.5,-001.3,0007.89,0004.81,0004.57
2023-09-11 08:43:00,SystemResetWarning,0837.1,4.99,000.00,028.9,027.6,000.0,037.2,030.6,32.4,-001.1,0007.85,0004.80,0004.58
2023-09-11 08:44:00,SystemResetWarning,0837.1,5.01,000.00,028.9,027.6,000.0,037.2,030.6,32.3,-001.0,0007.87,0004.80,0004.58
2023-09-11 08:45:00,SystemResetWarning,0837.0,5.01,000.00,029.0,027.6,000.0,037.2,030.6,32.3,-000.7,0007.83,0004.79,0004.58
2023-09-11 08:46:00,SystemResetWarning,0836.9,5.01,000.00,029.0,027.6,000.0,037.2,030.6,32.3,-000.9,0007.91,0004.81,0004.57
2023-09-11 08:47:00,SystemResetWarning,0836.9,5.00,000.00,029.0,027.6,000.0,037.2,030.6,32.3,-001.1,0007.95,0004.83,0004.57
2023-09-11 08:48:00,SystemResetWarning,0836.9,5.00,000.00,029.0,027.6,000.0,037.2,030.6,32.3,-000.7,0007.95,0004.82,0004.58
2023-09-11 08:49:00,SystemResetWarning,0836.9,5.00,000.00,029.0,027.6,000.0,037.2,030.6,32.3,-000.4,0008.01,0004.84,0004.58
2023-09-11 08:50:00,SystemResetWarning,0836.9,4.99,000.00,029.0,027.6,000.0,037.2,030.6,32.4,-000.6,0008.06,0004.86,0004.60
2023-09-11 08:51:00,SystemResetWarning,0837.0,4.99,000.00,029.0,027.6,000.0,037.2,030.6,32.3,-001.1,0008.08,0004.87,0004.61
2023-09-11 08:52:00,SystemResetWarning,0836.9,5.00,000.00,029.0,027.6,000.0,037.3,030.6,32.3,-000.6,0007.97,0004.90,0004.63
2023-09-11 08:53:00,SystemResetWarning,0836.9,5.00,000.00,029.0,027.6,000.0,037.3,030.6,32.2,-000.9,0007.87,0004.94,0004.64
2023-09-11 08:54:00,SystemResetWarning,0836.8,5.01,000.00,029.0,027.6,000.0,037.3,030.6,32.1,-000.9,0007.93,0004.98,0004.67
2023-09-11 08:55:00,SystemResetWarning,0836.8,5.01,000.00,029.0,027.6,000.0,037.3,030.6,32.1,-000.9,0007.98,0005.02,0004.71
2023-09-11 08:56:00,SystemResetWarning,0836.7,4.99,000.00,029.0,027.6,000.0,037.3,030.6,32.1,-000.8,0008.04,0005.06,0004.74
2023-09-11 08:57:00,SystemResetWarning,0836.8,5.00,000.00,029.0,027.6,000.0,037.3,030.6,32.1,-000.7,0008.02,0005.09,0004.78
2023-09-11 08:58:00,SystemResetWarning,0836.8,4.99,000.00,029.0,027.6,000.0,037.3,030.6,32.2,-000.7,0008.03,0005.11,0004.81
2023-09-11 08:59:00,SystemResetWarning,0836.7,5.00,000.00,029.0,027.6,000.0,037.3,030.6,32.2,-000.8,0008.12,0005.16,0004.84
